Погода в Сан Кристобаль

Венесуэла     7°46′00″N   72°13′29″W
темп.,
°C
ветер,
м/с
пор.,
м/с
влажн.,
%
обл.,
%
осадки,
мм/ч
давл.,
гПа
погр.,
м
20 сентября, пн
пн2023:00+18вюв119750 0.6 101540
02:00+17всв119690 0.9 101325
05:00+17сз1197100 0.9 101321
08:00+19всв019194 0.9 101480
11:00+25юв236255 1.3 10141181
14:00+27юв2348100 1.8 10101504
17:00+25юв235690 0.3 10101139
20:00+18вюв1396100 1.9 101468
21 сентября, вт
вт2123:00+18юв129499 0.3 101552
02:00+18вюв1193100 0.3 101343
05:00+18вюв1193100 0.0 101336
08:00+20вюв128351 0.0 1015169
11:00+26юв355440 0.4 10141432
14:00+27юв355466 1.4 10111369
17:00+24юв3560100 0.8 10101048
20:00+18юв139593 1.3 1014101
22 сентября, ср
ср2223:00+18вюв1299100 0.9 101685
02:00+17всв1197100 1.2 101231
05:00+17в1195100 0.0 101325
08:00+19вюв128862 0.1 1014103
11:00+27юв364965 0.1 10131486
14:00+27юв464910 0.7 10111556
17:00+24юв346574 0.7 1010901
20:00+18вюв1295100 1.3 101350
23 сентября, чт
чт2323:00+17св019388 0.0 101432
02:00+17ссз118679 0.1 101226
05:00+17всв1187100 0.1 101324
08:00+21вюв126983 0.1 1013198
11:00+28юв354468 0.1 10131670
14:00+28юв4747100 0.4 10101856
17:00+23юв247290 0.9 1010743
20:00+18вюв119794 2.2 101338
24 сентября, пт
пт2423:00+18ююв1299100 10.3 1015112
02:00+17всв0197100 10.5 101333
05:00+18в1195100 0.1 101329
08:00+18вюв1292100 0.1 101569
11:00+21юв2479100 0.8 1016677
14:00+19юв2490100 2.3 1015402
17:00+19юв2391100 1.1 1014279
20:00+17вюв2398100 1.1 1016118